ARIANE 42P DEB, 44512

Orbit data source: Space-Track

ARIANE 42P DEB, 44512 is space debris in LEO originally from a launch on Mon, 10 Aug 1992 UTC launched from the French Guiana (FRGUI). Debris objects in space refer to the collection of defunct objects orbiting the Earth. Examples of debris include non-operational satellites, rocket bodies, and fragments generated from explosions, collisions, or faulty payload assembly.

Loading next visibility...
Identifier
44512, 1992-052K
Orbit
LEO
Country
Flag of FRFR
Related business
Manufacturer
ArianeGroup
Mission
Spacecraft
Bus & Motor
Unknown
Mass
Unknown
Launch date (UTC)
1992-08-10 (33 years ago)
Launch vehicle
Unknown
Launch site
French Guiana (FRGUI)
Object type
Payload
Rocket body
Debris
Shape & HBR
Unknown shape, 0.1 m
Radar Cross Section
Small (<0.1 m²)

Expand to show TLE details & history
Last TLE update: 7 hours ago

TLE from 7 hours ago
0 ARIANE 42P DEB
1 44512U 92052K   25354.76400388  .00005171  00000-0  18088-1 0  9999
2 44512  65.9162 242.3268 0260734  38.6715 323.2656 12.86620013297426
Epoch: 2025-12-20T18:20Z
TLE epoch observation values (Epoch: 2025-12-20T18:20:09.935Z)
Latitude
-0.00003°
Longitude
-122.30074°
Altitude
1,158.036 km
Speed
7.349 km/s
True Right ascension
16h 09m 18s
True Declination
0° 00' 00"
Sunlit
Object was in daylight at epoch
Visualization orbit readout
Latitude
Unknown
Longitude
Unknown
Altitude
Unknown
Speed
Unknown
Apparent Right ascension
Unknown
Apparent Declination
Unknown
Sunlit
N/A
Visualization observer readout
Local Sidereal Time
00:39:26
Azimuth
Unknown
Elevation
Unknown
Doppler factor
Unknown
Orbital elements
Apogee altitude
1,514.087 km
Perigee altitude
1,112.991 km
Semi-major axis
7,691.676 km
Eccentricity
0.02607
Inclination
65.9162°
RAAN
242.3268°
Arg. of periapsis
38.6715°
True anomaly
321.43102°
Mean anomaly
323.2656°
Eccentric anomaly
322.35314°
Mean motion
3.21745 °/min
Orbital period
111.89 mins
BSTAR
0.018088
Loading maneuver chart data...
Computing Atmospheric mass density...
Loading historical data...
Loading historical data...
Loading historical data...
Loading historical data...
Loading historical data...
Loading historical data...
Loading historical data...

Documentation

Showing up to 5 results
|